CDT,Max TemperatureF,Mean TemperatureF,Min TemperatureF,Max Dew PointF,MeanDew PointF,Min DewpointF,Max Humidity, Mean Humidity, Min Humidity, Max Sea Level PressureIn, Mean Sea Level PressureIn, Min Sea Level PressureIn, Max VisibilityMiles, Mean VisibilityMiles, Min VisibilityMiles, Max Wind SpeedMPH, Mean Wind SpeedMPH, Max Gust SpeedMPH,PrecipitationIn, CloudCover, Events, WindDirDegrees
2013-6-1,79,66,54,50,40,32,76,42,18,30.17,30.04,29.86,10,10,10,25,15,33,0.00,0,,21
2013-6-2,80,64,48,47,42,39,80,47,25,30.23,30.12,29.98,10,10,10,18,9,24,0.00,0,,130
2013-6-3,94,76,59,52,47,41,57,39,21,30.01,29.89,29.73,10,10,7,26,21,38,0.00,1,,168
2013-6-4,92,76,61,64,56,52,85,51,26,29.89,29.85,29.80,10,10,10,25,17,31,0.00,0,,145
2013-6-5,82,70,60,64,55,48,82,63,35,30.10,30.01,29.84,10,10,10,31,19,34,0.00,4,,49
2013-6-6,79,67,55,54,48,46,79,56,31,30.13,30.08,30.01,10,10,10,17,11,20,0.00,4,,44
2013-6-7,83,70,59,59,54,46,88,62,36,30.11,30.03,29.93,10,10,1,22,13,30,0.00,2,Rain-Thunderstorm,167
2013-6-8,89,74,59,61,54,51,90,57,27,30.02,29.86,29.74,10,10,3,32,18,38,0.00,3,Rain-Thunderstorm,205
2013-6-9,88,72,57,61,54,44,95,60,22,30.07,30.01,29.96,10,10,10,16,7,21,0.00,1,Thunderstorm,199
2013-6-10,99,83,67,59,52,42,69,41,15,30.01,29.97,29.90,10,10,10,26,17,33,0.00,0,,209
2013-6-11,98,80,62,51,47,43,57,30,16,30.01,29.95,29.89,10,10,10,28,20,36,0.00,0,,186
2013-6-12,97,82,67,57,53,47,63,39,18,30.07,30.02,29.95,10,10,10,22,13,29,0.00,0,,201
2013-6-13,94,78,63,60,56,50,80,45,22,30.14,30.07,29.99,10,10,10,21,12,26,0.00,0,,193
2013-6-14,91,78,65,61,55,45,82,50,24,30.07,30.04,29.98,10,10,7,29,14,36,0.00,2,Rain,188
2013-6-15,89,76,64,64,61,57,92,64,35,30.06,30.01,29.92,10,10,4,25,18,32,0.00,2,Rain,189
2013-6-16,91,78,65,63,60,58,85,59,33,30.13,30.03,29.93,10,10,10,23,13,32,0.00,2,Thunderstorm,136
2013-6-17,84,73,62,61,58,53,94,64,34,30.13,30.07,29.98,10,10,1,25,11,34,0.00,2,Rain-Thunderstorm,77
2013-6-18,86,74,62,63,57,53,94,57,33,30.15,30.09,30.00,10,10,7,17,8,22,0.00,2,Thunderstorm,167
2013-6-19,80,72,63,63,60,57,94,72,48,30.12,29.99,29.89,10,9,1,38,20,50,0.00,3,Rain-Thunderstorm,158
2013-6-20,89,76,63,66,62,46,95,65,30,29.99,29.94,29.89,10,9,4,34,18,46,0.00,1,,174
2013-6-21,89,78,69,65,59,44,79,51,26,30.05,29.97,29.90,10,10,7,36,22,43,0.00,0,Rain,189
2013-6-22,90,78,67,64,60,57,74,53,40,29.98,29.92,29.85,10,9,7,30,21,38,0.00,0,Thunderstorm,177
2013-6-23,92,80,69,60,56,52,58,43,31,29.92,29.88,29.84,10,10,7,28,20,36,0.00,0,,180
2013-6-24,91,81,71,62,59,54,66,48,37,29.97,29.91,29.84,10,10,10,30,24,38,0.00,0,,181
2013-6-25,102,87,72,60,48,29,64,35,8,29.92,29.87,29.81,10,10,10,28,20,37,0.00,0,,215
2013-6-26,100,86,72,63,57,50,68,41,19,30.01,29.92,29.85,10,10,7,20,14,24,0.00,0,,184
2013-6-27,103,85,68,63,55,40,78,38,15,30.15,30.04,29.98,10,10,7,25,11,40,0.00,0,Thunderstorm,171
2013-6-28,96,82,68,60,51,44,64,34,16,30.18,30.12,30.06,10,10,10,20,10,28,0.00,0,Thunderstorm,98
2013-6-29,93,80,69,56,51,47,54,37,25,30.15,30.07,29.99,10,10,7,18,8,23,0.00,1,,123
2013-6-30,85,74,63,60,53,43,77,52,28,30.18,30.12,30.06,10,10,7,18,8,24,0.00,2,Rain,51